• Join FlightAware (Why Join?)
  • Login
  • US Flag 
06:27PM EDT


 

Airport Tracker/Info


-or-


 

Live Flight TrackerFlight Track Log ✈ THY2455 ✈ 24-Aug-2013 ✈ LTAF / ADA - LTBA / IST

Flight Track Log - Related Links

Times and Time Zones

All times are in EDT time to prevent confusion due to time zone crossing. See the THY2455 flight status page for this flight to view local times or setup timezone preferences in your user account.

Time Position Orientation Groundspeed Altitude Reporting Facility
EDT Latitude Longitude Course Direction KTS MPH feet Rate Location/Type
01:40AM 37.5081 34.5004 311° West  Level Estimated
01:41AM 37.5662 34.4131 310° West  Level Estimated
01:42AM 37.6243 34.3256 310° West  Level Estimated
01:43AM 37.6823 34.2380 310° West  Level Estimated
01:44AM 37.7402 34.1503 310° West  Level Estimated
01:45AM 37.7981 34.0624 310° West  Level Estimated
01:46AM 37.8559 33.9744 310° West  Level Estimated
01:47AM 37.9136 33.8862 310° West  Level Estimated
01:48AM 37.9713 33.7979 310° West  Level Estimated
01:49AM 38.0289 33.7095 310° West  Level Estimated
01:50AM 38.0864 33.6209 310° West  Level Estimated
01:51AM 38.1439 33.5322 309° West  Level Estimated
01:52AM 38.2013 33.4433 309° West  Level Estimated
01:53AM 38.2586 33.3543 309° West  Level Estimated
01:54AM 38.3159 33.2652 309° West  Level Estimated
01:55AM 38.3731 33.1759 309° West  Level Estimated
01:56AM 38.4302 33.0865 309° West  Level Estimated
01:57AM 38.4873 32.9969 309° West  Level Estimated
01:58AM 38.5442 32.9072 309° West  Level Estimated
01:59AM 38.6012 32.8174 309° West  Level Estimated
02:00AM 38.6580 32.7274 309° West  Level Estimated
02:01AM 38.7148 32.6372 309° West  Level Estimated
02:02AM 38.7715 32.5470 309° West  Level Estimated
02:03AM 38.8282 32.4566 309° West  Level Estimated
02:04AM 38.8848 32.3660 309° West  Level Estimated
02:05AM 38.9413 32.2753 309° West  Level Estimated
02:06AM 38.9977 32.1844 309° West  Level Estimated
02:07AM 39.0541 32.0934 309° West  Level Estimated
02:08AM 39.1104 32.0023 309° West  Level Estimated
02:09AM 39.1666 31.9110 308° West  Level Estimated
02:10AM 39.2228 31.8196 308° West  Level Estimated
02:11AM 39.2788 31.7280 308° West  Level Estimated
02:12AM 39.3349 31.6363 308° West  Level Estimated
02:13AM 39.3908 31.5444 308° West  Level Estimated
02:14AM 39.4467 31.4524 308° West  Level Estimated
02:15AM 39.5024 31.3602 308° West  Level Estimated
02:16AM 39.5582 31.2679 308° West  Level Estimated
02:17AM 39.6138 31.1755 308° West  Level Estimated
02:18AM 39.6694 31.0829 308° West  Level Estimated
02:19AM 39.7249 30.9901 308° West  Level Estimated
02:20AM 39.7803 30.8972 308° West  Level Estimated
02:21AM 39.8357 30.8041 308° West  Level Estimated
02:22AM 39.8909 30.7109 308° West  Level Estimated
02:23AM 39.9462 30.6176 308° West  Level Estimated
02:24AM 40.0013 30.5240 308° West  Level Estimated
02:25AM 40.0563 30.4304 308° West  Level Estimated
02:26AM 40.1113 30.3366 307° West  Level Estimated
02:27AM 40.1662 30.2426 307° West  Level Estimated
02:28AM 40.2210 30.1485 307° West  Level Estimated
02:29AM 40.2758 30.0542 307° West  Level Estimated
02:30AM 40.3304 29.9598 307° West  Level Estimated
02:31AM 40.3851 29.8652 307° West  Level Estimated
02:32AM 40.4396 29.7705 307° West  Level Estimated
02:33AM 40.4940 29.6756 307° West  Level Estimated
02:34AM 40.5484 29.5806 307° West  Level Estimated
02:35AM 40.6026 29.4854 307° West  Level Estimated
02:36AM 40.6569 29.3901 307° West  Level Estimated
02:37AM 40.7110 29.2946 307° West  Level Estimated
02:38AM 40.7650 29.1989 307° West  Level Estimated
02:39AM 40.8190 29.1031 307° West  Level Estimated
02:40AM 40.8729 29.0071 307° West  Level Estimated
02:41AM 40.9267 28.9110 307° West  Level Estimated
02:42AM 40.9769 28.8211 306° West  Level Estimated
02:43AM 40.9769 28.8211 21° North  Level Estimated
02:44AM 40.9769 28.8211 21° North  Level Estimated
02:45AM 40.9769 28.8211 21° North  Level Estimated
02:46AM 40.9769 28.8211 21° North  Level Estimated
02:47AM 40.9769 28.8211 21° North  Level Estimated
02:48AM 40.9769 28.8211 21° North  Level Estimated
02:49AM 40.9769 28.8211 21° North  Level Estimated
02:50AM 40.9769 28.8211 21° North  Level Estimated
02:51AM 40.9769 28.8211 21° North  Level Estimated
02:52AM 40.9769 28.8211 21° North  Level Estimated
02:53AM 40.9769 28.8211 21° North  Level Estimated
02:54AM 40.9769 28.8211 21° North  Level Estimated
02:55AM 40.9769 28.8211 21° North  Level Estimated
02:56AM 40.9769 28.8211 21° North  Level Estimated
02:57AM 40.9769 28.8211 21° North  Level Estimated
02:58AM 40.9769 28.8211 21° North  Level Estimated